Regional Weather Roundup
Issued by NWS Portland, ME

Current Version | Previous Version | Text Only | Print | Product List | Glossary Off
Versions: 1 2 3 4 5 6 7 8 9 10 11 12 13 14 15 16 17 18 19 20 21 22 23 24 25 26 27 28 29 30 31 32 33 34 35 36 37 38 39 40 41 42 43 44 45 46 47 48 49 50
000 ASUS41 KGYX 250605 RWRGYX WEATHER ROUNDUP FOR MAINE AND NEW HAMPSHIRE NATIONAL WEATHER SERVICE GRAY ME 200 AM EDT WED APR 25 2018 MEZ002-005-006-010-012-015-018-020-021-024-026-027-029-250700- MAINE CITY SKY/WX TMP DP RH WIND PRES REMARKS PORTLAND FAIR 49 37 63 S8 30.19F 6HR MIN TEMP: 49; 6HR MAX TEMP: 52; SANFORD FAIR 52 36 54 SW6 30.20F BAR HARBOR FAIR 45 37 73 S8 30.22F WISCASSET FAIR 49 39 68 SW8 30.21F 6HR MIN TEMP: 49; 6HR MAX TEMP: 52; ROCKLAND FAIR 48 38 68 SW15G22 30.21F FRYEBURG FAIR 55 34 45 S9 30.16F 6HR MIN TEMP: 55; 6HR MAX TEMP: 62; LEWISTONAUBURN FAIR 48 35 60 S9 30.17 AUGUSTA FAIR 48 36 63 S8 30.17F 6HR MIN TEMP: 48; 6HR MAX TEMP: 52; WATERVILLE FAIR 47 35 63 S6 30.15S BANGOR MOCLDY 47 36 65 S7 30.18F 6HR MIN TEMP: 46; 6HR MAX TEMP: 51; GREENVILLE N/A 42 34 73 SE7 30.10F 6HR MIN TEMP: 42; 6HR MAX TEMP: 55; MILLINOCKET FAIR 43 34 70 E3 30.14F 6HR MIN TEMP: 43; 6HR MAX TEMP: 59; HOULTON FAIR 46 34 62 MISG 30.11F 6HR MIN TEMP: 46; 6HR MAX TEMP: 60; PRESQUE ISLE FAIR 46 29 51 SE5 30.10S 6HR MIN TEMP: 45; 6HR MAX TEMP: 52; FRENCHVILLE FAIR 49 30 48 S7 30.05F 6HR MIN TEMP: 49; 6HR MAX TEMP: 59; CARIBOU FAIR 46 28 49 S6 30.08S 6HR MIN TEMP: 45; 6HR MAX TEMP: 59; $$ NHZ002-005-008-009-011-012-014-250700- NEW HAMPSHIRE CITY SKY/WX TMP DP RH WIND PRES REMARKS ROCHESTER FAIR 52 36 54 VRB5 30.19F 6HR MIN TEMP: 52; 6HR MAX TEMP: 59; NASHUA CLOUDY 53 37 54 S5 30.21F MANCHESTER CLOUDY 55 35 47 S8 30.19F 6HR MIN TEMP: 55; 6HR MAX TEMP: 65; CONCORD FAIR 53 38 56 S7 30.19F 6HR MIN TEMP: 53; 6HR MAX TEMP: 63; LACONIA FAIR 53 37 54 S10 30.17F PLYMOUTH FAIR 54 34 45 CALM 30.16F BERLIN FAIR 35 29 78 CALM 30.12F 6HR MIN TEMP: 35; 6HR MAX TEMP: 50; WHITEFIELD FAIR 40 31 70 CALM 30.13F 6HR MIN TEMP: 38; 6HR MAX TEMP: 57; JAFFREY MOCLDY 50 37 61 S3 30.19F 6HR MIN TEMP: 50; 6HR MAX TEMP: 58; KEENE CLOUDY 51 38 60 CALM 30.19F LEBANON FAIR 55 36 48 S10 30.14F 6HR MIN TEMP: 55; 6HR MAX TEMP: 63; MT WASHINGTON NOT AVBL $$ VTZ005-007-008-250700- VERMONT CITY SKY/WX TMP DP RH WIND PRES REMARKS ST JOHNSBURY N/A 55 34 45 MISG 30.10F MONTPELIER FAIR 52 31 44 S8 30.15F BURLINGTON FAIR 58 35 42 S13G25 30.08F $$ MAZ007-012-024-CTZ003-RIZ002-NYZ038-NYZ072-250700- SOUTHERN NEW ENGLAND AND NY CITY SKY/WX TMP DP RH WIND PRES REMARKS BOSTON FAIR 51 37 58 S5 30.22F WORCESTER FAIR 48 34 58 SE5 30.19F NANTUCKET FAIR 48 47 96 SE14 30.22F PROVIDENCE FAIR 50 42 74 NE3 30.21F HARTFORD CLOUDY 53 37 54 E5 30.17F ALBANY LGT RAIN 51 45 79 S5 30.16F NEW YORK CITY LGT RAIN 52 48 86 NE12 30.09F $$ ANZ081-ANZ082-ANZ150-NHZ014-MEZ023>029-250700- COASTAL MARINE OBSERVATIONS STATION/POSITION TIME TEMP WIND PRES WAVE AIR SEA DIR/SP/G HT/PER (UTC) (F) (DEG/KT/KT) (MB) (FT/S) MOUNT DESERT ROC 0600 44 210/ 14/ 16 1023.8S MATINICUS ROCK 0500 44 220/ 17/ 18 1023.4F ISLE OF SHOALS 0500 49 200/ 23/ 24 1023.1F JEFFREYS LEDGE 0536 42 N/A 3/ 5 CASHES LEDGE BUO 0550 45 42 1023.8F 4/ 5 $$ .............KEY.............. WCI - WIND CHILL TC - TEMPERATURE IN CELSIUS VSB - VISIBILITY IN MILES HX - HEAT INDEX FAIR- INDICATES FEW OR NO CLOUDS BELOW 12,000 FT, WITH NO SIGNIFICANT WEATHER AND/OR OBSTRUCTIONS TO VISIBILITY.

USA.gov is the U.S. government's official web portal to all federal, state and local government web resources and services.